This is the latest recevied weather packets stored in our database for station/object HP1CDW-13. If no packets are shown the sender has not sent any weather packets the latest 10 day(s).
| Time | Temp. | Humidity | Pressure | Rain* | Wind** | Luminosity | Snow |
|---|---|---|---|---|---|---|---|
| 1778113490 | 27.22° C | 92% | 1013.6 hPa | 0 mm | - | - | - |
| 1778112890 | 27.78° C | 92% | 1013.6 hPa | 0 mm | - | - | - |
| 1778112290 | 27.78° C | 93% | 1013.5 hPa | 0 mm | - | - | - |
| 1778111690 | 27.78° C | 93% | 1013.6 hPa | 0 mm | - | - | - |
| 1778111090 | 27.78° C | 94% | 1013.5 hPa | 0 mm | - | - | - |
| 1778110490 | 27.78° C | 95% | 1013.3 hPa | 0 mm | - | - | - |
| 1778109890 | 27.78° C | 95% | 1013.3 hPa | 0 mm | - | - | - |
| 1778109290 | 27.78° C | 94% | 1013.3 hPa | 0.76 mm | - | - | - |
| 1778108690 | 27.78° C | 94% | 1013.4 hPa | 4.57 mm | - | - | - |
| 1778108090 | 27.78° C | 93% | 1012.8 hPa | 10.92 mm | - | - | - |
| 1778107490 | 27.78° C | 93% | 1012.7 hPa | 16.76 mm | - | - | - |
| 1778106890 | 27.78° C | 93% | 1012.8 hPa | 18.8 mm | - | - | - |
| 1778106290 | 27.22° C | 93% | 1012.7 hPa | 18.8 mm | - | - | - |
| 1778105690 | 27.22° C | 92% | 1012.8 hPa | 18.03 mm | - | - | - |
| 1778105090 | 27.78° C | 91% | 1012.7 hPa | 13.97 mm | - | - | - |
| 1778104490 | 28.89° C | 87% | 1012.6 hPa | 7.87 mm | - | - | - |
| 1778103890 | 30° C | 84% | 1012.4 hPa | 2.03 mm | - | - | - |
| 1778103290 | 31.67° C | 76% | 1012.5 hPa | 0 mm | - | - | - |
| 1778102690 | 31.67° C | 79% | 1012.3 hPa | 0 mm | - | - | - |
| 1778102090 | 31.67° C | 79% | 1012.2 hPa | 0 mm | - | - | - |
| 1778101490 | 31.67° C | 78% | 1012.3 hPa | 0 mm | - | - | - |
| 1778100890 | 31.67° C | 77% | 1012.5 hPa | 0 mm | - | - | - |
| 1778100290 | 31.67° C | 77% | 1012.7 hPa | 0 mm | - | - | - |
| 1778099690 | 31.11° C | 77% | 1012.5 hPa | 0 mm | - | - | - |
| 1778099090 | 31.67° C | 77% | 1012.5 hPa | 0 mm | - | - | - |
* Rain latest hour (hover to see other rain measurements)
** Current wind speed in m/s (hover to see current wind gust speed)